| time (UTC) | temp F | wind direction | speed knots | gust knots | rain 1hr in | rain 24hr in | rain mn in | humidity % | barometer mb |
| 20260506201520 | 43 | 332 | 0.0 | 0.0 | 0.03 | 0.60 | 0.55 | 95 | 1007.6 |
| 20260506200017 | 44 | 321 | 0.0 | 0.0 | 0.02 | 0.65 | 0.54 | 95 | 1007.6 |
| 20260506194517 | 44 | 316 | 0.0 | 0.0 | 0.01 | 0.64 | 0.53 | 95 | 1007.4 |
| 20260506193016 | 44 | 333 | 0.0 | 0.0 | 0.01 | 0.64 | 0.53 | 95 | 1007.2 |
| 20260506191514 | 44 | 335 | 0.0 | 0.0 | 0.00 | 0.63 | 0.52 | 95 | 1007.2 |
| 20260506190013 | 44 | 321 | 0.0 | 0.0 | 0.01 | 0.69 | 0.52 | 95 | 1007.2 |
| 20260506184510 | 44 | 171 | 0.0 | 0.0 | 0.01 | 0.69 | 0.52 | 95 | 1007.5 |
| 20260506183011 | 44 | 170 | 0.0 | 0.0 | 0.01 | 0.69 | 0.52 | 95 | 1007.5 |
| 20260506181508 | 44 | 155 | 0.0 | 0.0 | 0.02 | 0.69 | 0.52 | 95 | 1007.7 |
| 20260506180012 | 43 | 339 | 0.0 | 0.0 | 0.03 | 0.69 | 0.51 | 95 | 1007.8 |
| 20260506174504 | 43 | 339 | 0.0 | 0.0 | 0.04 | 0.69 | 0.51 | 95 | 1008.2 |
| 20260506173008 | 43 | 340 | 0.0 | 0.0 | 0.06 | 0.69 | 0.51 | 95 | 1008.1 |
| 20260506171504 | 43 | 338 | 0.0 | 0.0 | 0.08 | 0.68 | 0.50 | 95 | 1008.2 |
| 20260506170004 | 43 | 338 | 0.0 | 0.0 | 0.08 | 0.66 | 0.48 | 95 | 1008.1 |
| 20260506164504 | 42 | 338 | 0.0 | 0.0 | 0.09 | 0.65 | 0.47 | 95 | 1008.4 |
| 20260506163002 | 42 | 340 | 0.0 | 0.0 | 0.09 | 0.63 | 0.45 | 95 | 1008.6 |
| 20260506161500 | 42 | 336 | 0.0 | 0.0 | 0.09 | 0.60 | 0.42 | 95 | 1008.7 |
| 20260506160111 | 42 | 332 | 0.0 | 0.0 | 0.10 | 0.57 | 0.40 | 95 | 1008.6 |
| 20260506154601 | 42 | 329 | 0.0 | 0.0 | 0.10 | 0.56 | 0.38 | 95 | 1008.9 |
| 20260506153059 | 42 | 339 | 0.0 | 0.0 | 0.09 | 0.54 | 0.36 | 95 | 1009.0 |
| 20260506151557 | 42 | 350 | 0.0 | 0.0 | 0.08 | 0.51 | 0.33 | 95 | 1009.0 |
| 20260506150057 | 42 | 329 | 0.0 | 0.0 | 0.05 | 0.47 | 0.28 | 95 | 1008.5 |
| 20260506144555 | 42 | 335 | 0.0 | 0.0 | 0.05 | 0.46 | 0.28 | 95 | 1008.6 |
| 20260506143054 | 43 | 336 | 0.0 | 0.0 | 0.05 | 0.45 | 0.27 | 95 | 1008.6 |
| 20260506141554 | 43 | 332 | 0.0 | 0.0 | 0.03 | 0.43 | 0.25 | 95 | 1008.8 |
| 20260506140052 | 43 | 335 | 0.0 | 0.0 | 0.04 | 0.42 | 0.24 | 95 | 1008.9 |
| 20260506134551 | 43 | 341 | 0.0 | 0.0 | 0.04 | 0.41 | 0.23 | 95 | 1008.7 |
| 20260506133051 | 43 | 346 | 0.0 | 0.0 | 0.05 | 0.40 | 0.22 | 95 | 1008.6 |
| 20260506131557 | 43 | 25 | 0.0 | 0.0 | 0.04 | 0.39 | 0.21 | 95 | 1009.0 |
| 20260506130103 | 43 | 330 | 0.0 | 0.0 | 0.06 | 0.38 | 0.20 | 95 | 1009.0 |
| 20260506124556 | 43 | 330 | 0.0 | 0.0 | 0.07 | 0.37 | 0.19 | 95 | 1009.0 |
| 20260506123049 | 43 | 330 | 0.0 | 0.0 | 0.07 | 0.35 | 0.17 | 95 | 1009.0 |
| 20260506121546 | 43 | 330 | 0.0 | 0.0 | 0.08 | 0.35 | 0.17 | 94 | 1009.3 |
| 20260506120044 | 44 | 321 | 0.0 | 0.0 | 0.05 | 0.32 | 0.14 | 94 | 1009.9 |
| 20260506114541 | 45 | 321 | 0.0 | 0.0 | 0.04 | 0.30 | 0.12 | 95 | 1009.7 |
| 20260506113047 | 45 | 316 | 0.0 | 0.0 | 0.02 | 0.28 | 0.10 | 95 | 1009.4 |
| 20260506111541 | 46 | 316 | 0.0 | 0.0 | 0.02 | 0.27 | 0.09 | 95 | 1008.9 |
| 20260506110049 | 45 | 316 | 0.0 | 0.0 | 0.02 | 0.27 | 0.09 | 95 | 1008.7 |
| 20260506104547 | 45 | 316 | 0.0 | 0.0 | 0.01 | 0.26 | 0.08 | 95 | 1008.8 |
| 20260506103046 | 45 | 316 | 0.0 | 0.0 | 0.01 | 0.26 | 0.08 | 95 | 1008.7 |
| 20260506101548 | 45 | 316 | 0.0 | 0.0 | 0.01 | 0.25 | 0.07 | 95 | 1008.8 |
| 20260506100052 | 46 | 316 | 0.0 | 0.0 | 0.02 | 0.25 | 0.07 | 95 | 1008.7 |
| 20260506094532 | 46 | 316 | 0.0 | 0.0 | 0.02 | 0.25 | 0.07 | 95 | 1008.6 |
| 20260506093039 | 46 | 316 | 0.0 | 0.0 | 0.02 | 0.25 | 0.07 | 95 | 1009.1 |
| 20260506091535 | 46 | 307 | 0.0 | 0.0 | 0.01 | 0.24 | 0.06 | 95 | 1008.9 |
| 20260506090028 | 47 | 307 | 0.0 | 0.0 | 0.01 | 0.23 | 0.05 | 95 | 1009.5 |
| 20260506084526 | 47 | 307 | 0.0 | 0.0 | 0.01 | 0.23 | 0.05 | 94 | 1008.9 |
| 20260506083023 | 47 | 307 | 0.0 | 0.0 | 0.01 | 0.23 | 0.05 | 94 | 1009.1 |
| 20260506081531 | 48 | 307 | 0.0 | 0.0 | 0.01 | 0.23 | 0.05 | 94 | 1009.1 |
| 20260506073033 | 48 | 304 | 0.0 | 0.0 | 0.00 | 0.22 | 0.04 | 94 | 1008.9 |
| 20260506071517 | 49 | 305 | 0.0 | 0.0 | 0.00 | 0.22 | 0.04 | 94 | 1008.9 |
| 20260506061510 | 50 | 179 | 0.0 | 0.0 | 0.00 | 0.22 | 0.04 | 94 | 1008.7 |
| 20260506044705 | 51 | 26 | 0.0 | 0.0 | 0.06 | 0.22 | 0.04 | 93 | 1008.1 |
| 20260506043108 | 51 | 27 | 0.0 | 0.0 | 0.05 | 0.20 | 0.02 | 92 | 1008.2 |
| 20260506041602 | 52 | 27 | 0.0 | 0.0 | 0.04 | 0.19 | 0.01 | 90 | 1007.9 |
| 20260506040050 | 53 | 51 | 0.0 | 0.0 | 0.03 | 0.18 | 0.18 | 87 | 1008.1 |
| 20260506034620 | 55 | 142 | 0.0 | 0.0 | 0.01 | 0.16 | 0.16 | 81 | 1007.7 |
| 20260506033044 | 55 | 311 | 0.0 | 0.0 | 0.00 | 0.15 | 0.15 | 78 | 1007.6 |
| 20260506031543 | 55 | 330 | 0.0 | 0.9 | 0.00 | 0.15 | 0.15 | 80 | 1007.3 |
| 20260506030041 | 56 | 159 | 0.0 | 0.9 | 0.00 | 0.15 | 0.15 | 78 | 1007.3 |
| 20260506024537 | 57 | 158 | 0.0 | 0.0 | 0.00 | 0.15 | 0.15 | 74 | 1007.1 |
| 20260506023052 | 58 | 163 | 0.0 | 0.0 | 0.00 | 0.15 | 0.15 | 71 | 1006.9 |
| 20260506021535 | 59 | 60 | 0.0 | 0.0 | 0.00 | 0.15 | 0.15 | 71 | 1006.7 |
| 20260506020035 | 59 | 295 | 0.0 | 0.0 | 0.00 | 0.15 | 0.15 | 75 | 1006.8 |
| 20260506014533 | 60 | 154 | 0.0 | 2.6 | 0.00 | 0.15 | 0.15 | 77 | 1006.8 |
| 20260506013030 | 59 | 152 | 0.0 | 0.0 | 0.00 | 0.15 | 0.15 | 85 | 1006.2 |
| 20260506011526 | 60 | 326 | 0.0 | 0.9 | 0.00 | 0.15 | 0.15 | 83 | 1005.4 |
| 20260506010024 | 59 | 131 | 0.0 | 0.0 | 0.00 | 0.15 | 0.15 | 88 | 1005.0 |
| 20260506004533 | 60 | 133 | 0.0 | 0.0 | 0.00 | 0.15 | 0.15 | 87 | 1004.8 |
| 20260506003035 | 61 | 132 | 0.0 | 0.0 | 0.00 | 0.15 | 0.15 | 85 | 1004.4 |
| 20260506001518 | 60 | 163 | 0.0 | 0.0 | 0.00 | 0.15 | 0.15 | 87 | 1004.2 |
| 20260506000116 | 60 | 164 | 0.0 | 0.0 | 0.00 | 0.15 | 0.15 | 86 | 1004.1 |
| 20260505234525 | 61 | 163 | 0.0 | 0.0 | 0.00 | 0.15 | 0.15 | 83 | 1004.0 |
| 20260505233015 | 62 | 162 | 0.0 | 0.0 | 0.00 | 0.15 | 0.15 | 79 | 1004.0 |
| 20260505231516 | 63 | 153 | 0.0 | 0.0 | 0.00 | 0.15 | 0.15 | 77 | 1003.9 |
| 20260505230013 | 64 | 333 | 0.0 | 0.0 | 0.00 | 0.15 | 0.15 | 76 | 1003.5 |
| 20260505224512 | 64 | 145 | 0.0 | 1.7 | 0.00 | 0.15 | 0.15 | 72 | 1003.4 |
| 20260505223011 | 62 | 158 | 0.0 | 2.6 | 0.00 | 0.15 | 0.15 | 78 | 1003.4 |
| 20260505221512 | 60 | 350 | 0.0 | 0.0 | 0.00 | 0.15 | 0.15 | 87 | 1003.9 |
| 20260505220021 | 59 | 338 | 0.0 | 0.0 | 0.00 | 0.15 | 0.15 | 91 | 1003.8 |
| 20260505214507 | 60 | 339 | 0.0 | 0.0 | 0.00 | 0.15 | 0.15 | 90 | 1003.7 |
| 20260505213006 | 60 | 153 | 0.0 | 0.0 | 0.00 | 0.15 | 0.15 | 90 | 1003.3 |
| 20260505211505 | 60 | 146 | 0.0 | 0.0 | 0.01 | 0.15 | 0.15 | 92 | 1002.9 |
| 20260505210005 | 59 | 150 | 0.0 | 0.0 | 0.03 | 0.15 | 0.15 | 90 | 1002.4 |
| 20260505204503 | 59 | 155 | 0.0 | 0.0 | 0.08 | 0.15 | 0.15 | 88 | 1002.5 |
| 20260505203004 | 60 | 128 | 0.0 | 0.0 | 0.00 | 0.00 | 0.15 | 84 | 1002.4 |